DW1345 Weather Reports


time (UTC)temp
C
wind
direction
speed
KPH
gust
KPH
rain 1hr
cm
rain 24hr
cm
rain mn
cm
humidity
%
barometer
mb
20260905034540 12 68 0.0 0.0 0.00 0.00 0.00 76 997.6
20260905033036 12 69 3.2 0.0 0.00 0.00 0.00 76 997.5
20260905031540 12 92 4.8 0.0 0.00 0.00 0.00 76 997.5
20260905030035 12 97 4.8 0.0 0.00 0.00 0.00 77 997.5
20260905024533 12 92 4.8 0.0 0.00 0.00 0.00 77 997.5
20260905023031 12 85 6.4 0.0 0.00 0.00 0.00 78 997.5
20260905021541 12 119 6.4 0.0 0.00 0.00 0.00 77 997.4
20260905020030 12 93 6.4 0.0 0.00 0.00 0.00 77 997.5
20260905014526 12 90 6.4 0.0 0.00 0.00 0.00 77 997.4
20260905013027 13 92 6.4 0.0 0.00 0.00 0.00 75 997.3
20260905011528 13 79 6.4 0.0 0.00 0.00 0.00 75 997.4
20260905010031 13 86 6.4 0.0 0.00 0.00 0.00 76 997.3
20260905004532 13 95 6.4 0.0 0.00 0.00 0.00 76 997.3
20260905003038 13 86 6.4 0.0 0.00 0.00 0.00 76 997.3
20260905001522 13 81 8.0 0.0 0.00 0.00 0.00 76 997.4
20260905000022 13 113 8.0 0.0 0.00 0.00 0.00 76 997.4
20260904234526 13 117 8.0 0.0 0.00 0.00 0.00 75 997.5
20260904233037 13 101 4.8 0.0 0.00 0.00 0.00 76 997.6
20260904231522 13 105 8.0 0.0 0.00 0.00 0.00 76 997.6
20260904230033 12 92 4.8 0.0 0.00 0.00 0.00 79 997.5
20260904224513 12 83 1.6 0.0 0.00 0.00 0.00 81 997.6
20260904223013 12 83 3.2 0.0 0.00 0.00 0.00 81 997.4
20260904221510 12 84 3.2 0.0 0.00 0.00 0.00 80 997.5
20260904220013 12 90 1.6 0.0 0.00 0.00 0.00 80 997.3
20260904214508 12 94 1.6 0.0 0.00 0.00 0.03 78 997.4
20260904213008 12 94 3.2 0.0 0.00 0.00 0.03 76 997.3
20260904211513 13 74 4.8 0.0 0.00 0.00 0.03 75 997.3
20260904210007 13 98 4.8 0.0 0.00 0.00 0.03 75 997.3
20260904204506 13 116 4.8 0.0 0.00 0.00 0.03 77 997.3
20260904203006 13 91 3.2 0.0 0.00 0.00 0.03 77 997.3
20260904201505 13 109 4.8 0.0 0.00 0.00 0.03 79 997.2
20260904200005 12 87 0.0 0.0 0.00 0.00 0.03 82 997.1
20260904194508 12 87 1.6 0.0 0.00 0.00 0.03 84 997.2
20260904193004 11 105 0.0 0.0 0.00 0.00 0.03 84 997.0
20260904191504 11 109 0.0 0.0 0.00 0.00 0.03 84 997.1
20260904190003 12 109 0.0 0.0 0.00 0.00 0.03 84 997.0
20260904184503 12 109 0.0 0.0 0.00 0.00 0.03 84 997.1
20260904183003 12 109 0.0 0.0 0.00 0.00 0.03 82 997.1
20260904181510 13 109 0.0 0.0 0.00 0.00 0.03 80 996.9
20260904180006 14 109 0.0 0.0 0.00 0.00 0.03 79 996.8
20260904174507 15 109 0.0 0.0 0.00 0.00 0.03 78 997.0
20260904173002 15 109 0.0 0.0 0.00 0.00 0.03 77 997.0
20260904171608 16 109 0.0 0.0 0.00 0.00 0.03 77 996.9
20260904170107 16 109 0.0 0.0 0.00 0.00 0.03 75 997.0
20260904164601 16 109 0.0 0.0 0.00 0.00 0.03 74 996.9
20260904163059 16 109 0.0 0.0 0.00 0.00 0.03 73 997.0
20260904161604 16 109 0.0 0.0 0.00 0.00 0.03 71 996.9
20260904160058 16 109 0.0 0.0 0.00 0.00 0.03 69 996.9
20260904154557 17 109 1.6 0.0 0.00 0.00 0.03 67 997.1
20260904153105 17 106 0.0 0.0 0.00 0.00 0.03 71 997.0
20260904151556 17 106 0.0 0.0 0.00 0.00 0.03 71 997.0
20260904150057 17 106 0.0 0.0 0.00 0.00 0.03 66 997.0
20260904144601 17 103 4.8 0.0 0.00 0.00 0.03 63 997.1
20260904143054 17 109 4.8 0.0 0.00 0.00 0.03 64 997.1
20260904141553 17 132 8.0 0.0 0.00 0.00 0.03 63 997.1
20260904140052 17 109 8.0 0.0 0.00 0.00 0.03 62 997.3
20260904134551 17 99 8.0 0.0 0.00 0.00 0.03 62 997.3
20260904133050 18 136 9.7 0.0 0.00 0.00 0.03 59 997.4
20260904131551 18 123 9.7 0.0 0.00 0.00 0.03 61 997.4
20260904130048 18 101 9.7 0.0 0.00 0.00 0.03 61 997.3
20260904124557 18 76 8.0 0.0 0.00 0.00 0.03 59 997.3
20260904123045 19 90 8.0 0.0 0.00 0.00 0.03 57 997.4
20260904121542 18 132 9.7 0.0 0.00 0.00 0.03 58 997.5
20260904120046 18 123 8.0 0.0 0.00 0.00 0.03 57 997.5
20260904114541 18 91 6.4 0.0 0.00 0.00 0.03 61 997.5
20260904113040 18 95 9.7 0.0 0.00 0.00 0.03 62 997.7
20260904111531 17 77 8.0 0.0 0.00 0.00 0.03 64 997.8
20260904110029 17 103 6.4 0.0 0.00 0.00 0.03 66 997.8
20260904104527 17 132 8.0 0.0 0.00 0.00 0.03 66 998.2
20260904103032 17 74 4.8 0.0 0.00 0.00 0.03 70 998.0
20260904101522 17 73 3.2 0.0 0.00 0.00 0.03 70 998.0
20260904100018 16 113 4.8 0.0 0.00 0.00 0.03 74 998.2
20260904094514 16 138 4.8 0.0 0.00 0.00 0.03 78 998.4
20260904093011 15 101 4.8 0.0 0.00 0.00 0.03 78 998.3
20260904091507 15 50 6.4 0.0 0.00 0.00 0.03 80 998.5
20260904090008 14 86 8.0 0.0 0.00 0.00 0.03 80 998.5
20260904084501 14 79 6.4 0.0 0.00 0.00 0.03 83 998.6
20260904083100 13 66 6.4 0.0 0.00 0.00 0.03 83 998.6
20260904081633 13 74 4.8 0.0 0.00 0.00 0.03 85 998.7
20260904080055 13 65 4.8 0.0 0.00 0.00 0.03 85 998.6
20260904074607 13 122 4.8 0.0 0.00 0.00 0.03 88 998.6
20260904073102 13 126 6.4 0.0 0.00 0.00 0.03 90 998.7
20260904071547 12 127 4.8 0.0 0.00 0.00 0.03 92 998.9
20260904070056 12 69 1.6 0.0 0.00 0.00 0.03 94 999.0
20260904064541 11 17 0.0 0.0 0.00 0.00 0.03 96 999.0
20260904063040 11 26 1.6 0.0 0.00 0.00 0.03 96 999.0
20260904061536 11 49 3.2 0.0 0.00 0.00 0.03 96 999.2
20260904060034 10 55 3.2 0.0 0.00 0.00 0.03 97 999.2
20260904054531 10 33 3.2 0.0 0.00 0.00 0.03 96 999.4
20260904053036 9 37 3.2 0.0 0.00 0.00 0.03 96 999.4
20260904051535 9 42 3.2 0.0 0.00 0.00 0.03 97 999.6
20260904050034 8 39 1.6 0.0 0.00 0.00 0.03 96 999.5
20260904044526 8 40 0.0 0.0 0.00 0.00 0.03 95 999.6
20260904043025 8 53 1.6 0.0 0.00 0.00 0.03 96 999.7
20260904041525 9 82 3.2 0.0 0.00 0.00 0.03 96 999.7
20260904040025 9 61 1.6 0.0 0.00 0.00 0.03 96 999.7